| time (UTC) | temp C | wind direction | speed KPH | gust KPH | rain 1hr cm | rain 24hr cm | rain mn cm | humidity % | barometer mb |
| 20260509024511 | 12 | 216 | 3.2 | 9.7 | 0.00 | 0.81 | 0.66 | 91 | 1009.1 |
| 20260509023003 | 12 | 182 | 3.2 | 11.3 | 0.00 | 0.81 | 0.66 | 91 | 1009.3 |
| 20260509021502 | 12 | 155 | 3.2 | 9.7 | 0.00 | 0.81 | 0.66 | 91 | 1009.3 |
| 20260509014559 | 12 | 214 | 4.8 | 11.3 | 0.00 | 0.81 | 0.66 | 91 | 1009.2 |
| 20260509013100 | 12 | 201 | 4.8 | 12.9 | 0.00 | 0.81 | 0.66 | 91 | 1009.1 |
| 20260509011557 | 12 | 200 | 4.8 | 14.5 | 0.00 | 0.81 | 0.66 | 90 | 1009.2 |
| 20260509004600 | 12 | 231 | 4.8 | 12.9 | 0.00 | 0.81 | 0.66 | 90 | 1009.1 |
| 20260509003049 | 12 | 216 | 1.6 | 9.7 | 0.00 | 0.81 | 0.66 | 90 | 1009.1 |
| 20260509001546 | 12 | 221 | 3.2 | 12.9 | 0.00 | 0.81 | 0.66 | 90 | 1009.0 |
| 20260508234550 | 12 | 210 | 3.2 | 11.3 | 0.00 | 0.81 | 0.66 | 90 | 1009.2 |
| 20260508233042 | 12 | 204 | 1.6 | 8.0 | 0.00 | 0.81 | 0.66 | 90 | 1009.2 |
| 20260508231540 | 12 | 207 | 0.0 | 6.4 | 0.03 | 0.81 | 0.66 | 90 | 1009.3 |
| 20260508224537 | 12 | 249 | 1.6 | 12.9 | 0.05 | 0.81 | 0.66 | 89 | 1009.3 |
| 20260508223040 | 12 | 190 | 1.6 | 12.9 | 0.08 | 0.81 | 0.66 | 90 | 1009.6 |
| 20260508221533 | 12 | 219 | 1.6 | 8.0 | 0.13 | 0.79 | 0.64 | 91 | 1009.5 |
| 20260508214528 | 12 | 199 | 0.0 | 4.8 | 0.25 | 0.76 | 0.61 | 91 | 1009.6 |
| 20260508213027 | 12 | 216 | 0.0 | 6.4 | 0.33 | 0.76 | 0.61 | 90 | 1009.8 |
| 20260508211521 | 12 | 236 | 0.0 | 4.8 | 0.30 | 0.69 | 0.53 | 89 | 1010.1 |
| 20260508204536 | 12 | 238 | 0.0 | 3.2 | 0.20 | 0.51 | 0.36 | 88 | 1010.2 |
| 20260508203038 | 13 | 231 | 0.0 | 8.0 | 0.15 | 0.46 | 0.30 | 87 | 1010.3 |
| 20260508201533 | 13 | 247 | 0.0 | 14.5 | 0.15 | 0.41 | 0.25 | 86 | 1010.4 |
| 20260508194509 | 14 | 249 | 0.0 | 17.7 | 0.05 | 0.30 | 0.15 | 80 | 1010.6 |
| 20260508193007 | 15 | 291 | 4.8 | 22.5 | 0.05 | 0.30 | 0.15 | 78 | 1010.7 |
| 20260508191506 | 15 | 232 | 1.6 | 12.9 | 0.00 | 0.25 | 0.10 | 72 | 1010.6 |
| 20260508184559 | 15 | 236 | 0.0 | 0.0 | 0.00 | 0.25 | 0.10 | 71 | 1010.7 |
| 20260508183055 | 16 | 255 | 0.0 | 0.0 | 0.00 | 0.25 | 0.10 | 69 | 1010.8 |
| 20260508181557 | 16 | 250 | 1.6 | 11.3 | 0.00 | 0.25 | 0.10 | 66 | 1010.9 |
| 20260508174554 | 15 | 248 | 0.0 | 6.4 | 0.00 | 0.25 | 0.10 | 65 | 1011.2 |
| 20260508173044 | 15 | 224 | 1.6 | 9.7 | 0.00 | 0.25 | 0.10 | 65 | 1011.6 |
| 20260508171537 | 15 | 203 | 1.6 | 8.0 | 0.00 | 0.25 | 0.10 | 66 | 1011.8 |
| 20260508164531 | 15 | 224 | 4.8 | 14.5 | 0.00 | 0.25 | 0.10 | 67 | 1012.4 |
| 20260508163029 | 15 | 144 | 3.2 | 14.5 | 0.00 | 0.25 | 0.10 | 66 | 1012.4 |
| 20260508161525 | 15 | 98 | 3.2 | 11.3 | 0.00 | 0.25 | 0.10 | 69 | 1012.5 |
| 20260508154519 | 13 | 248 | 0.0 | 9.7 | 0.03 | 0.25 | 0.10 | 73 | 1013.1 |
| 20260508153015 | 12 | 61 | 0.0 | 0.0 | 0.03 | 0.25 | 0.10 | 77 | 1013.2 |
| 20260508151521 | 11 | 238 | 0.0 | 1.6 | 0.10 | 0.25 | 0.10 | 81 | 1013.2 |
| 20260508144502 | 10 | 233 | 0.0 | 0.0 | 0.10 | 0.25 | 0.10 | 84 | 1013.6 |
| 20260508143001 | 10 | 233 | 0.0 | 0.0 | 0.08 | 0.23 | 0.08 | 83 | 1014.0 |
| 20260508141616 | 10 | 268 | 0.0 | 0.0 | 0.03 | 0.18 | 0.03 | 81 | 1014.0 |
| 20260508134608 | 10 | 278 | 0.0 | 0.0 | 0.00 | 0.15 | 0.00 | 81 | 1013.3 |
| 20260508133052 | 10 | 236 | 0.0 | 0.0 | 0.00 | 0.15 | 0.00 | 81 | 1013.2 |
| 20260508131550 | 10 | 243 | 0.0 | 11.3 | 0.00 | 0.15 | 0.00 | 80 | 1013.5 |
| 20260508130147 | 11 | 244 | 1.6 | 12.9 | 0.00 | 0.15 | 0.00 | 78 | 1013.4 |
| 20260508124557 | 11 | 234 | 6.4 | 16.1 | 0.00 | 0.15 | 0.00 | 77 | 1013.6 |
| 20260508123050 | 11 | 248 | 1.6 | 9.7 | 0.00 | 0.15 | 0.00 | 76 | 1013.4 |
| 20260508121544 | 11 | 231 | 4.8 | 16.1 | 0.00 | 0.15 | 0.00 | 75 | 1013.3 |
| 20260508114539 | 11 | 222 | 0.0 | 11.3 | 0.00 | 0.15 | 0.00 | 74 | 1013.1 |
| 20260508113047 | 10 | 268 | 0.0 | 3.2 | 0.00 | 0.15 | 0.00 | 75 | 1012.9 |
| 20260508111529 | 10 | 174 | 0.0 | 6.4 | 0.00 | 0.15 | 0.00 | 76 | 1012.9 |
| 20260508110129 | 10 | 246 | 0.0 | 0.0 | 0.00 | 0.15 | 0.00 | 76 | 1012.9 |
| 20260508104536 | 10 | 239 | 0.0 | 3.2 | 0.00 | 0.15 | 0.00 | 77 | 1012.8 |
| 20260508103036 | 9 | 219 | 0.0 | 8.0 | 0.00 | 0.15 | 0.00 | 77 | 1012.7 |
| 20260508101532 | 9 | 158 | 0.0 | 4.8 | 0.00 | 0.15 | 0.00 | 78 | 1012.8 |
| 20260508100130 | 9 | 244 | 0.0 | 8.0 | 0.00 | 0.15 | 0.00 | 77 | 1013.0 |
| 20260508094513 | 9 | 200 | 0.0 | 1.6 | 0.00 | 0.15 | 0.00 | 77 | 1013.0 |
| 20260508093015 | 9 | 245 | 0.0 | 9.7 | 0.00 | 0.15 | 0.00 | 76 | 1012.9 |
| 20260508091514 | 9 | 259 | 0.0 | 6.4 | 0.00 | 0.15 | 0.00 | 75 | 1013.0 |
| 20260508084510 | 9 | 241 | 1.6 | 9.7 | 0.00 | 0.15 | 0.00 | 75 | 1012.9 |
| 20260508083009 | 9 | 199 | 0.0 | 17.7 | 0.00 | 0.15 | 0.00 | 75 | 1013.0 |
| 20260508081509 | 9 | 245 | 0.0 | 9.7 | 0.00 | 0.15 | 0.00 | 76 | 1012.9 |
| 20260508074601 | 8 | 233 | 0.0 | 9.7 | 0.00 | 0.15 | 0.00 | 79 | 1012.9 |
| 20260508073156 | 8 | 178 | 0.0 | 9.7 | 0.00 | 0.15 | 0.00 | 79 | 1012.9 |
| 20260508071554 | 8 | 208 | 0.0 | 11.3 | 0.00 | 0.15 | 0.00 | 80 | 1013.1 |
| 20260508070151 | 8 | 191 | 0.0 | 8.0 | 0.00 | 0.15 | 0.00 | 81 | 1013.1 |
| 20260508064549 | 8 | 202 | 0.0 | 6.4 | 0.00 | 0.15 | 0.00 | 82 | 1013.2 |
| 20260508063048 | 7 | 226 | 0.0 | 6.4 | 0.00 | 0.15 | 0.00 | 83 | 1013.3 |
| 20260508061544 | 7 | 183 | 0.0 | 0.0 | 0.00 | 0.15 | 0.00 | 83 | 1013.4 |
| 20260508060141 | 7 | 187 | 0.0 | 0.0 | 0.00 | 0.15 | 0.00 | 85 | 1013.6 |
| 20260508054509 | 7 | 205 | 0.0 | 0.0 | 0.00 | 0.15 | 0.00 | 86 | 1013.7 |
| 20260508053006 | 7 | 186 | 0.0 | 0.0 | 0.00 | 0.15 | 0.00 | 85 | 1013.7 |
| 20260508051503 | 7 | 196 | 0.0 | 0.0 | 0.00 | 0.15 | 0.00 | 85 | 1013.7 |
| 20260508050105 | 8 | 164 | 0.0 | 0.0 | 0.00 | 0.15 | 0.00 | 85 | 1013.7 |
| 20260508044530 | 8 | 214 | 0.0 | 0.0 | 0.00 | 0.15 | 0.00 | 85 | 1013.8 |
| 20260508043027 | 8 | 167 | 0.0 | 0.0 | 0.00 | 0.15 | 0.00 | 84 | 1013.9 |
| 20260508041522 | 8 | 158 | 0.0 | 0.0 | 0.00 | 0.15 | 0.00 | 84 | 1014.0 |
| 20260508040119 | 8 | 211 | 0.0 | 0.0 | 0.15 | 0.15 | 0.00 | 84 | 1013.9 |
| 20260508034517 | 9 | 229 | 0.0 | 0.0 | 0.15 | 0.15 | 0.15 | 83 | 1014.0 |
| 20260508033016 | 9 | 248 | 0.0 | 0.0 | 0.15 | 0.15 | 0.15 | 83 | 1014.2 |
| 20260508031514 | 9 | 238 | 0.0 | 8.0 | 0.15 | 0.15 | 0.15 | 81 | 1014.0 |
| 20260508030110 | 10 | 273 | 0.0 | 4.8 | 0.00 | 0.00 | 0.00 | 75 | 1014.6 |